This is the latest recevied weather packets stored in our database for station/object N1ORT. If no packets are shown the sender has not sent any weather packets the latest 10 day(s).
| Time | Temp. | Humidity | Pressure | Rain* | Wind** | Luminosity | Snow |
|---|---|---|---|---|---|---|---|
| 1777220171 | 14.44° C | 44% | 1018.9 hPa | 0 mm | - | 270 W/m² | - |
| 1777219868 | 14.44° C | 42% | 1019 hPa | 0 mm | - | 245 W/m² | - |
| 1777219564 | 14.44° C | 41% | 1018.9 hPa | 0 mm | - | 223 W/m² | - |
| 1777219261 | 14.44° C | 41% | 1018.9 hPa | 0 mm | - | 215 W/m² | - |
| 1777218956 | 13.89° C | 42% | 1018.9 hPa | 0 mm | - | 213 W/m² | - |
| 1777218653 | 13.89° C | 41% | 1019 hPa | 0 mm | - | 218 W/m² | - |
| 1777218343 | 14.44° C | 42% | 1019 hPa | 0 mm | - | 212 W/m² | - |
| 1777218040 | 14.44° C | 42% | 1018.9 hPa | 0 mm | - | 212 W/m² | - |
| 1777217735 | 14.44° C | 42% | 1019 hPa | 0 mm | - | 234 W/m² | - |
| 1777217431 | 13.89° C | 41% | 1018.9 hPa | 0 mm | - | 365 W/m² | - |
| 1777217127 | 13.89° C | 43% | 1018.9 hPa | 0 mm | - | 247 W/m² | - |
| 1777216824 | 13.89° C | 41% | 1018.8 hPa | 0 mm | - | 230 W/m² | - |
| 1777216520 | 13.89° C | 41% | 1018.7 hPa | 0 mm | - | 220 W/m² | - |
| 1777216216 | 15° C | 40% | 1018.8 hPa | 0 mm | - | 259 W/m² | - |
| 1777215909 | 15° C | 41% | 1018.6 hPa | 0 mm | - | 695 W/m² | - |
| 1777215606 | 15° C | 39% | 1018.9 hPa | 0 mm | - | 731 W/m² | - |
| 1777215301 | 14.44° C | 40% | 1018.8 hPa | 0 mm | - | 980 W/m² | - |
| 1777214997 | 14.44° C | 39% | 1018.8 hPa | 0 mm | - | 447 W/m² | - |
| 1777214696 | 13.89° C | 41% | 1018.9 hPa | 0 mm | - | 681 W/m² | - |
| 1777214390 | 14.44° C | 39% | 1018.8 hPa | 0 mm | - | 381 W/m² | - |
| 1777214085 | 13.89° C | 40% | 1018.8 hPa | 0 mm | - | 522 W/m² | - |
| 1777213784 | 13.89° C | 40% | 1018.8 hPa | 0 mm | - | 402 W/m² | - |
| 1777213480 | 15° C | 41% | 1018.7 hPa | 0 mm | - | 478 W/m² | - |
| 1777213178 | 15° C | 43% | 1018.8 hPa | 0 mm | - | 968 W/m² | - |
| 1777212874 | 13.89° C | 44% | 1018.8 hPa | 0 mm | - | 960 W/m² | - |
* Rain latest hour (hover to see other rain measurements)
** Current wind speed in m/s (hover to see current wind gust speed)